CHINASAT 12 (ZX 12)

Last updated on May 23, 2019, 3:05 a.m. UTC

1 39017U 12067A   19142.91179877 -.00000214  00000-0  00000+0 0  9999
2 39017   0.0321  50.7841 0003299   5.2508 239.9439  1.00270569 23819
UTC
Height (km)
Latitude
Longitude
Inclination
Orbital Period
UTC large
Height (km)
Speed (km/s)
/
Latitude / Longitude
Inclination (degrees)
Orbital Period (minutes)
Azimuth
Elevation
Range (km)
Doppler Factor
iOS Compass Heading
iOS Angle

Next 30 passes for location: Hong Kong

Rise time Rise Azimuth (degrees) Set time Set Azimuth (degrees) Duration Max altitude (degrees)

No matching passes for this satellites